Uitslag Haventriatlon top 3

# Naam Totaal
1 Coddens Kris 00:53:30 88.94
2 Veramme Koen 00:53:47 87.42
3 Thijs Nick 00:54:02 87.13
4 Patteeuw Brent 00:54:12 86.94
5 Naeyaert Louis 00:54:29 86.62
6 Nobels Laurent 00:54:39 86.43
7 Teblick Job 00:55:03 85.97
8 Bogaert Mike 00:55:47 85.13
9 Wera Wout 00:56:30 84.31
10 Sanders Sören 00:56:31 84.29
11 Cardoen Olivier 00:56:49 83.95
12 Claeys ALexander 00:56:58 83.78
13 Coulon Johan 00:57:09 83.57
14 Samijn Arne 00:57:45 82.89
15 Uyttersprot Dieter 00:57:47 82.85
16 Van Biervliet Karl 00:58:26 82.11
17 Minnebo Gino 00:58:28 82.07
18 Van Hoornick Tim 00:58:29 82.05
19 Mortelmans Karel 00:59:14 81.19
20 Swolfs Sanne 00:59:20 81.08
21 Baron Jan 00:59:25 80.98
22 De Hon Erwin 00:59:57 80.37
23 Depyper Miel 01:00:12 80.09
24 De Dobbelaere Jan 01:00:31 79.73
25 Thys Thomas 01:00:41 79.54
26 gailliaert steven 01:00:52 79.33
27 Florussen Dennis 01:00:54 79.29
28 Debaeke Jelmer 01:01:24 78.72
29 Dewitte Bart 01:01:27 78.66
30 Van Den Broeck Herman 01:01:36 78.49
31 Knockaert Tobias 01:02:10 77.84
32 Claeys Yves 01:02:16 77.73
33 Plessers Stijn 01:02:32 77.42
34 Sigmans Peter 01:02:46 77.16
35 De Rous Robin 01:02:49 77.10
36 Bekaert Michiel 01:02:51 77.06
37 Declerck Jan 01:03:27 76.38
38 Deceur Marc 01:03:31 76.30
39 Inion Kris 01:03:35 76.22
40 Moerman Rudy 01:03:59 75.77
41 Calebout Stefan 01:04:00 75.75
42 Doise Wim 01:04:25 75.27
43 Depoorter Stijn 01:04:41 74.97
44 Geldhof Wesley 01:04:48 74.83
45 Van Der Meulen Marco 01:04:54 74.72
46 Demey Koen 01:04:58 74.64
47 Beuselinck Glenn 01:05:04 74.53
48 Vanwelden Sander 01:05:15 74.32
49 Verbeke Bert 01:05:17 74.28
50 Van Dromme Maarten 01:05:24 74.15
51 Tempelaere Brecht 01:05:35 73.94
52 Eecloo Klaas 01:06:04 73.39
53 Claeys Mathieu 01:06:05 73.37
54 Vlamynck Hans 01:06:06 73.35
55 Seys Pieter 01:06:25 72.99
56 Versieren Petro 01:06:28 72.93
57 Thai-thuc Yann 01:06:38 72.74
58 Marreyt Chris 01:06:50 72.51
59 Goris Yves 01:06:55 72.42
60 De Boeck Gina 01:06:58 74.76
61 Karolien De Waele 01:07:01 73.52
62 Denoulet Jon 01:07:04 72.24
63 Lagast Peter 01:07:04 72.24
64 Libotte Dirk 01:07:05 72.23
65 Bogaert Ellen 01:07:10 73.41
66 Strobbe Tuur 01:07:18 71.98
67 Berton Jeffrey 01:07:21 71.92
68 Depouillon Dirk 01:07:41 71.54
69 De Weghe Mario 01:07:50 71.37
70 De Lepeleere Nico 01:08:07 71.04
71 Deconinck Stijn 01:08:09 71.01
72 Vranckx Nils 01:08:19 70.82
73 Defever Stefaan 01:08:22 70.76
74 Amandels Glenn 01:08:23 70.74
75 Dewaele Didier 01:08:25 70.70
76 Vanderstraeten Jan 01:08:27 70.66
77 Hermans Anthony 01:08:30 70.61
78 Gabriels Thierry 01:08:31 70.59
79 Vervaet Jocelyne 01:08:40 72.24
80 Bailliu Bjorn 01:08:42 70.38
81 Rotthier Thomas 01:08:56 70.11
82 Demeyer Koen 01:08:57 70.09
83 Lauwers Frank 01:09:01 70.02
84 De Bruyckere Bram 01:09:04 69.96
85 Serruys Pieterjan 01:09:05 69.94
86 Boedt Thomas 01:09:19 69.67
87 Trenson Bieke 01:09:26 71.65
88 Goossens Sven 01:09:29 69.48
89 Van Damme Vincent 01:09:30 69.46
90 Beernaert Brecht 01:09:33 69.41
91 Van Der Vliet Paul 01:09:35 69.37
92 Beerens Steven 01:09:38 69.31
93 Sanders Jeffrey 01:09:38 69.31
94 D'Hondt Kris 01:09:40 69.27
95 Van Vaerenbergh Johan 01:09:43 69.22
96 Everaert Filip 01:09:48 69.12
97 Crabeels Pascal 01:10:12 68.67
98 Van Ooteghem Wouter 01:10:13 68.65
99 Follens Jan 01:10:14 68.63
100 Vanneste Gert-jan 01:10:20 68.51
101 Vandewaetere Kim 01:10:20 70.95
102 Dedulle Bart 01:10:28 68.36
103 Baeteman Benedicte 01:10:47 70.60
104 Gijsenbergs Wouter 01:10:58 67.79
105 Guillemijn Kennie 01:11:01 67.73
106 Acke Wim 01:11:02 67.71
107 Langenbick Johan 01:11:18 67.41
108 Verschaetse Geert 01:11:19 67.39
109 Vandecasteele Manu 01:11:21 67.35
110 Danneels Jacques 01:11:27 67.24
111 Mortier Michiel 01:11:32 67.14
112 Crombez Willem 01:11:34 67.10
113 Vanrysselberghe Philippe 01:11:47 66.86
114 Delatter Yannick 01:11:47 66.86
115 Lapere Brecht 01:11:52 66.76
116 De Loof Pieter 01:11:54 66.72
117 Oreel Birger 01:12:03 66.55
118 Vancoillie Christophe 01:12:11 66.40
119 Téblick Jonas 01:12:12 66.38
120 Lanckriet Marc 01:12:14 66.34
121 Vandelook Koen 01:12:19 66.25
122 Himpe Karen 01:12:23 69.36
123 Scheerlinck Lodewijk 01:12:28 66.08
124 Psa De Muynck Luc 01:12:31 66.02
125 Peeters Christof 01:12:35 65.94
126 Van Goethem Michiel 01:12:51 65.64
127 D'hont Matthias 01:12:57 65.52
128 Koopman Paul 01:13:22 65.05
129 Herzeel Ronny 01:13:27 64.95
130 Vandierendonck Sammy 01:13:39 64.72
131 Renders Annelies 01:13:39 68.38
132 Verroens Peter 01:13:49 64.53
133 Talloen Bart 01:13:54 64.44
134 DE GROOTE Dominiek 01:13:55 64.42
135 De Ruyter Frederik 01:13:58 64.36
136 Bousba Hakim 01:14:03 64.27
137 Colaert Sander 01:14:03 64.27
138 Verlinde Laurens 01:14:12 64.10
139 Ketels Bart 01:14:14 64.06
140 Danneels Jelle 01:14:15 64.04
141 Vanhaecke Niels 01:14:17 64.00
142 Schmidt Bill 01:14:20 63.94
143 Crevits Patrick 01:14:21 63.93
144 Goh Kester 01:14:24 63.87
145 Watteny Timon 01:14:24 63.87
146 Leyden Tom 01:14:28 63.79
147 Snick Eric 01:14:33 63.70
148 Schotte Christophe 01:14:34 63.68
149 Verlinde Robin 01:14:35 63.66
150 Kris Lemmens 01:14:40 63.56
151 Van De Velde Ruben 01:14:44 63.49
152 Van Belle Guy 01:14:49 63.39
153 Vanderhaeghe Dries 01:14:53 63.32
154 Devreese Ignace 01:14:56 63.26
155 D`hooge Marc 01:14:59 63.20
156 Desmet Sven 01:15:01 63.16
157 Piccavet Luc 01:15:04 63.11
158 Gantois Mathias 01:15:04 63.11
159 Crets Bruno 01:15:15 62.90
160 Van Biesen Andy 01:15:16 62.88
161 Boute Edward 01:15:25 62.71
162 Senaeve Pieterjan 01:15:30 62.61
163 Gielen Paul 01:15:38 62.46
164 Vandertaelen Andy 01:15:40 62.42
165 Goethals Joke 01:15:41 66.81
166 Beulque Randy 01:15:51 62.21
167 Vandewalle Ruben 01:15:57 62.10
168 Buyse Kurt 01:15:57 62.10
169 Beauprez Ronan 01:15:58 62.08
170 Vanroose Roel 01:15:58 62.08
171 Stappers Senne 01:15:58 62.08
172 De Wolf Glen 01:16:20 61.66
173 Bullynck Nick 01:16:35 61.37
174 Dorlandt Koen 01:16:42 61.24
175 Van De Velde Stieven 01:16:44 61.20
176 Standaert Ruben 01:16:53 61.03
177 Lemmens Lisa 01:16:57 65.83
178 Vandermeersch Margot 01:17:06 65.71
179 Lava Kurt 01:17:07 60.76
180 Martens Tamara 01:17:11 65.65
181 Gaudesaboos Tom 01:17:12 60.67
182 Gaudesaboos Kristof 01:17:12 60.67
183 Claeys Jimmy 01:17:18 60.56
184 De Broyer Ellen 01:17:19 65.54
185 Casselman Matthias 01:17:23 60.46
186 Dobbelaere Dieter 01:17:24 60.44
187 Mariën Walter 01:17:31 60.31
188 Baert Tom 01:17:53 59.89
189 Buyens Carine 01:18:00 65.01
190 Buffel Frederik 01:18:05 59.66
191 Viaene Yoeri 01:18:07 59.62
192 Delodder Emelie 01:18:09 64.90
193 De Meyer Peter 01:18:10 59.57
194 De Naeyer Ludwig 01:18:20 59.38
195 Roels Bernard 01:18:23 59.32
196 De Waele Rudy 01:18:27 59.24
197 Genbrugge Jeroen 01:18:29 59.20
198 Coomans Natalie 01:18:36 64.55
199 Rikers Pascal 01:18:54 58.73
200 Ghysel Jordy 01:18:55 58.71
201 Claus Dirk 01:19:20 58.23
202 Bruynooghe Nikita 01:19:23 58.18
203 Verlinde Dirk 01:19:25 58.14
204 Van Der Elst Inge 01:19:32 63.83
205 Roels Febe 01:19:39 63.74
206 Abel Johan 01:19:41 57.83
207 Swerts Sebastien 01:19:56 57.55
208 Van Wijk Nico 01:19:56 57.55
209 Staelens Sam 01:20:04 57.40
210 Bertier Gerrit 01:20:22 57.05
211 De Laat Rene 01:20:26 56.98
212 Cinjaere Wesley 01:20:27 56.96
213 Blasi Juan 01:20:59 56.35
214 Vergison Tom 01:21:09 56.16
215 Verdickt Jef 01:21:09 56.16
216 Vanhorenbeek Jan 01:21:22 55.91
217 Boydens Ingrid 01:21:29 62.32
218 D'hoore Veerle 01:21:29 62.32
219 De Kesel Jos 01:21:32 55.72
220 Claeys Dominique 01:21:36 55.64
221 Denys Rebecca 01:21:46 62.10
222 Roels Jade 01:21:50 62.04
223 Speytebroodt Christel 01:21:54 61.99
224 Verhelst André 01:21:57 55.24
225 De Clerck Vicky 01:22:15 61.72
226 Major Jacqueline 01:22:29 61.54
227 De Cleer Hélène 01:22:34 61.48
228 Smits Jerry 01:22:41 54.41
229 Vandewalle Stefanie 01:23:08 61.04
230 Vandewalle Annelies 01:23:08 61.04
231 Gyselinck Martin 01:23:28 53.51
232 Vangaever Ann 01:23:39 60.64
233 De Corte Chloë 01:23:56 60.42
234 Verbeeck Eline 01:24:09 60.25
235 Van Den Neucker Luc 01:24:17 52.58
236 Utterwulghe Geert 01:24:30 52.33
237 VINCKE Jochem 01:24:42 52.10
238 De Buck Caroline 01:24:46 59.77
239 Davit Katelijne 01:24:48 59.75
240 Noens Nele 01:25:20 59.33
241 Geerts Nathalie 01:25:21 59.32
242 Lebbe Patricia 01:25:48 58.97
243 Stefan Jeuris 01:25:58 50.66
244 De Veene Jan 01:26:49 49.69
245 Lahti Laura 01:27:21 57.77
246 Van De Keere Stefaan 01:27:30 48.91
247 GEVAERT Kris 01:27:31 48.89
248 Bulwik Sarah 01:27:34 57.60
249 Verkinderen Karen 01:28:12 57.11
250 De Bauw Hanne 01:28:29 56.89
251 Roos Cornelis 01:28:45 47.48
252 De Muynck Severien 01:28:59 56.51
253 De Dijcker Christine 01:29:24 56.18
254 Bormans Evelien 01:29:34 56.05
255 Vandaele Evelien 01:30:01 55.71
256 Neuville Joke 01:30:37 55.24
257 Van Heesvelde Thierry 01:30:38 45.33
258 Vercaigne Kristien 01:30:58 54.97
259 Anthonis Erik 01:31:10 44.72
260 Haspeslagh Marie 01:31:23 54.65
261 Matthijs Sabine 01:31:29 54.57
262 Billiet Ann 01:31:52 54.27
263 Jorens Noëmie 01:33:17 53.17
264 De Meester Matthijs 01:33:18 42.28
265 Ghysel Walter 01:34:05 41.39
266 RappÉ Greetje 01:34:10 52.49
267 Valentin Jeremy 01:34:12 41.25
268 Monbaliu Sofie 01:34:32 52.21
269 Lenders Geert 01:35:46 39.46
270 Dhont Stefanie 01:36:48 50.45
271 Dhont Nathalie 01:37:10 37.86
272 Caspers Hannelore 01:37:51 37.08
273 Boussemaere Lies 01:39:22 48.46
274 Couvreur Lore 01:41:54 46.50
275 Willems Lieve 01:46:53 42.14
276 Dezutter Jimmy 01:47:29 25.58

Afbeeldingen

Afbeeldingen van Saskia Debeuf

Reacties

  • Nog geen reacties beschikbaar